18.04.2024;22:00;8
18.04.2024;21:00;8
18.04.2024;20:00;7
18.04.2024;19:00;6
18.04.2024;18:00;5
18.04.2024;17:00;5
18.04.2024;16:00;5
18.04.2024;15:00;6
18.04.2024;14:00;6
18.04.2024;13:00;7
18.04.2024;12:00;7
18.04.2024;11:00;8
18.04.2024;10:00;7
18.04.2024;09:00;6
18.04.2024;08:00;10
18.04.2024;07:00;11
18.04.2024;06:00;10
18.04.2024;05:00;9
18.04.2024;04:00;8
18.04.2024;03:00;8
18.04.2024;02:00;7
18.04.2024;01:00;5
17.04.2024;24:00;5
17.04.2024;23:00;5
17.04.2024;22:00;5
17.04.2024;21:00;5
17.04.2024;20:00;5
17.04.2024;19:00;5
17.04.2024;18:00;6
17.04.2024;17:00;6
17.04.2024;16:00;5
17.04.2024;15:00;4
17.04.2024;14:00;4
17.04.2024;13:00;4
17.04.2024;12:00;3
17.04.2024;11:00;2
17.04.2024;10:00;3
17.04.2024;09:00;3
17.04.2024;08:00;3
17.04.2024;07:00;3
17.04.2024;06:00;2
17.04.2024;05:00;2
17.04.2024;04:00;2
17.04.2024;03:00;2
17.04.2024;02:00;3
17.04.2024;01:00;3
16.04.2024;24:00;3
16.04.2024;23:00;5
16.04.2024;22:00;6
16.04.2024;21:00;5
16.04.2024;20:00;5
16.04.2024;19:00;6
16.04.2024;18:00;5
16.04.2024;17:00;6
16.04.2024;16:00;6
16.04.2024;15:00;6
16.04.2024;14:00;7
16.04.2024;13:00;7
16.04.2024;12:00;6
16.04.2024;11:00;5
16.04.2024;10:00;4
16.04.2024;09:00;4
16.04.2024;08:00;6
16.04.2024;07:00;6
16.04.2024;06:00;7
16.04.2024;05:00;4
16.04.2024;04:00;3
16.04.2024;03:00;3
16.04.2024;02:00;3
16.04.2024;01:00;6
15.04.2024;24:00;10
15.04.2024;23:00;10
15.04.2024;22:00;11
15.04.2024;21:00;13
15.04.2024;20:00;14
15.04.2024;19:00;14
15.04.2024;18:00;16
15.04.2024;17:00;10
15.04.2024;16:00;12
15.04.2024;15:00;#
15.04.2024;14:00;17
15.04.2024;13:00;22
15.04.2024;12:00;22
15.04.2024;11:00;18
15.04.2024;10:00;16
15.04.2024;09:00;18
15.04.2024;08:00;19
15.04.2024;07:00;13
15.04.2024;06:00;11
15.04.2024;05:00;11
15.04.2024;04:00;14
15.04.2024;03:00;16
15.04.2024;02:00;23
15.04.2024;01:00;27
14.04.2024;24:00;29
14.04.2024;23:00;26
14.04.2024;22:00;20
14.04.2024;21:00;18
14.04.2024;20:00;15
14.04.2024;19:00;12
14.04.2024;18:00;11
14.04.2024;17:00;9
14.04.2024;16:00;9
14.04.2024;15:00;8
14.04.2024;14:00;8
14.04.2024;13:00;7
14.04.2024;12:00;7
14.04.2024;11:00;7
14.04.2024;10:00;7
14.04.2024;09:00;7
14.04.2024;08:00;8
14.04.2024;07:00;7
14.04.2024;06:00;8
14.04.2024;05:00;12
14.04.2024;04:00;13
14.04.2024;03:00;14
14.04.2024;02:00;16
14.04.2024;01:00;21
13.04.2024;24:00;32
13.04.2024;23:00;50
13.04.2024;22:00;43
13.04.2024;21:00;30
13.04.2024;20:00;17
13.04.2024;19:00;11
13.04.2024;18:00;11
13.04.2024;17:00;9
13.04.2024;16:00;8
13.04.2024;15:00;9
13.04.2024;14:00;11
13.04.2024;13:00;16
13.04.2024;12:00;17
13.04.2024;11:00;16
13.04.2024;10:00;13
13.04.2024;09:00;15
13.04.2024;08:00;17
13.04.2024;07:00;18
13.04.2024;06:00;16
13.04.2024;05:00;16
13.04.2024;04:00;18
13.04.2024;03:00;18
13.04.2024;02:00;25
13.04.2024;01:00;31
